FW6834 Weather Reports


Display with metric or nautical units.
time (UTC)temp
F
wind
direction
speed
MPH
gust
MPH
rain 1hr
in
rain 24hr
in
rain mn
in
humidity
%
barometer
mb
20260903021102 92 145 3.0 11.0 0.00 0.00 0.00 40 1052.5
20260903015602 92 139 6.0 7.0 0.00 0.00 0.00 41 1052.5
20260903014601 92 132 4.0 7.0 0.00 0.00 0.00 40 1052.2
20260903013102 93 165 6.0 7.0 0.00 0.00 0.00 39 1052.2
20260903011602 94 171 6.0 8.0 0.00 0.00 0.00 38 1052.2
20260903005102 95 107 4.0 7.0 0.00 0.00 0.00 36 1051.8
20260903003602 97 169 6.0 9.0 0.00 0.00 0.00 35 1051.8
20260903002102 97 161 9.0 10.0 0.00 0.00 0.00 34 1051.8
20260903000603 98 147 5.0 10.0 0.00 0.00 0.00 34 1051.8
20260902235102 99 171 7.0 9.0 0.00 0.00 0.00 33 1051.8
20260902233605 99 197 8.0 9.0 0.00 0.00 0.00 32 1051.8
20260902232102 100 182 8.0 8.0 0.00 0.00 0.00 32 1051.8
20260902230602 100 183 7.0 10.0 0.00 0.00 0.00 31 1051.8
20260902223602 100 148 8.0 10.0 0.00 0.00 0.00 31 1051.8
20260902222102 100 160 4.0 10.0 0.00 0.00 0.00 31 1052.2
20260902221101 101 209 5.0 11.0 0.00 0.00 0.00 30 1052.2
20260902215603 99 136 6.0 9.0 0.00 0.00 0.00 34 1052.2
20260902214601 100 199 5.0 11.0 0.00 0.00 0.00 32 1052.2
20260902213101 101 87 4.0 9.0 0.00 0.00 0.00 33 1052.5
20260902210103 101 134 7.0 9.0 0.00 0.00 0.00 33 1052.8
20260902204601 102 130 8.0 11.0 0.00 0.00 0.00 32 1053.2
20260902201602 102 127 8.0 12.0 0.00 0.00 0.00 33 1053.2
20260902194602 102 174 5.0 9.0 0.00 0.00 0.00 35 1053.8
20260902192101 101 118 7.0 10.0 0.00 0.00 0.00 34 1054.2
20260902190602 103 161 3.0 9.0 0.00 0.00 0.00 33 1054.5
20260902185601 102 215 8.0 10.0 0.00 0.00 0.00 33 1054.5
20260902184102 102 182 3.0 9.0 0.00 0.00 0.00 33 1054.9
20260902182602 101 165 8.0 10.0 0.00 0.00 0.00 34 1055.2
20260902181104 100 200 10.0 10.0 0.00 0.00 0.00 36 1055.5
20260902174602 100 148 3.0 10.0 0.00 0.00 0.00 36 1055.9
20260902173103 101 189 5.0 7.0 0.00 0.00 0.00 36 1055.9
20260902164602 98 102 3.0 10.0 0.00 0.00 0.00 39 1056.6
20260902163102 97 233 7.0 7.0 0.00 0.00 0.00 40 1056.6
20260902161603 96 176 5.0 11.0 0.00 0.00 0.00 42 1056.6
20260902154602 95 189 8.0 9.0 0.00 0.00 0.00 43 1056.6
20260902153102 92 216 8.0 13.0 0.00 0.00 0.00 45 1056.9
20260902151602 91 135 9.0 15.0 0.00 0.00 0.00 47 1056.9
20260902144602 89 183 8.0 13.0 0.00 0.00 0.00 49 1056.9
20260902143602 89 216 10.0 14.0 0.00 0.00 0.00 50 1056.9
20260902142102 89 172 9.0 10.0 0.00 0.00 0.00 50 1056.9
20260902140602 87 200 8.0 11.0 0.00 0.00 0.00 52 1056.6
20260902133603 85 326 9.0 14.0 0.00 0.00 0.00 56 1056.6
20260902132102 84 185 8.0 13.0 0.00 0.00 0.00 57 1056.6
20260902125601 83 161 7.0 10.0 0.00 0.00 0.00 60 1056.6
20260902124102 82 196 6.0 11.0 0.00 0.00 0.00 60 1056.2
20260902122602 81 175 4.0 7.0 0.00 0.00 0.00 61 1056.2
20260902114102 81 168 3.0 5.0 0.00 0.00 0.00 60 1055.9
20260902112602 82 154 2.0 6.0 0.00 0.00 0.00 59 1055.5
20260902111104 82 163 3.0 5.0 0.00 0.00 0.00 59 1055.5
20260902105602 82 156 3.0 5.0 0.00 0.00 0.00 58 1055.5
20260902104102 82 149 3.0 6.0 0.00 0.00 0.00 57 1055.5
20260902102602 83 194 3.0 6.0 0.00 0.00 0.00 56 1055.5
20260902101101 83 176 4.0 7.0 0.00 0.00 0.00 56 1055.2
20260902094102 83 168 4.0 7.0 0.00 0.00 0.00 56 1055.2
20260902091102 83 129 6.0 10.0 0.00 0.00 0.00 56 1055.2
20260902085602 84 173 6.0 7.0 0.00 0.00 0.00 55 1055.2
20260902084602 84 187 9.0 9.0 0.00 0.00 0.00 55 1055.2
20260902082101 84 138 8.0 9.0 0.00 0.00 0.00 54 1055.2
20260902080603 84 146 3.0 9.0 0.00 0.00 0.00 53 1055.2
20260902072102 85 188 5.0 8.0 0.00 0.00 0.00 50 1055.2
20260902070602 85 175 6.0 7.0 0.00 0.00 0.00 49 1055.2
20260902065102 85 157 4.0 6.0 0.00 0.00 0.00 49 1055.2
20260902062102 86 173 3.0 6.0 0.00 0.00 0.00 48 1055.2
20260902060602 86 177 6.0 8.0 0.00 0.00 0.00 47 1055.2
20260902055602 86 176 4.0 8.0 0.00 0.00 0.00 47 1055.2
20260902052602 87 205 4.0 7.0 0.00 0.00 0.00 46 1054.9
20260902051601 88 102 3.0 7.0 0.00 0.00 0.00 45 1054.9
20260902045602 88 196 4.0 8.0 0.00 0.00 0.00 44 1054.9
20260902044103 88 118 6.0 8.0 0.00 0.00 0.00 44 1054.9
20260902042602 88 251 7.0 10.0 0.00 0.00 0.00 43 1055.2
20260902041102 88 163 7.0 8.0 0.00 0.00 0.00 44 1055.2
20260902035602 88 142 3.0 6.0 0.00 0.00 0.00 44 1055.2
20260902032602 89 170 4.0 7.0 0.00 0.00 0.00 42 1054.9
20260902025603 90 182 5.0 5.0 0.00 0.00 0.00 41 1054.5
20260902024102 91 156 3.0 7.0 0.00 0.00 0.00 40 1054.2
20260902022601 91 189 3.0 6.0 0.00 0.00 0.00 40 1053.8